Location: Poughquag
(41.6090°N, 73.6820°W)
Time: 09:30:53
(UTC-05:00)

DIWATA 2B (PO-101) - Pass Details

Date: 14 November 2025
Orbit: 563 x 574 km, 98.1° (Epoch: 07 December)

Event Time Altitude Azimuth Distance (km) Brightness Sun altitude
Rises 05:12:41 0° 168° (SSE) 2,762 ? -16.9°
Reaches altitude 10° 05:14:49 10° 170° (S) 1,868 ? -16.5°
Maximum altitude 05:18:51 79° 256° (WSW) 586 ? -15.8°
Drops below altitude 10° 05:22:56 10° 345° (NNW) 1,876 ? -15.0°
Enters shadow 05:24:48 - 346° (NNW) 2,659 ? -14.7°
